User: anonymous   Login
Location: Unspecified
(0.0000°N, 0.0000°E)
Time: 14:49:51
(UTC+00:00)
Language:

Picosat 9 - Orbit

View from above orbital plane
View from above orbital plane
View from above satellite
View from above satellite

Ground track
Ground track

The orbit data is extracted from the following two-line orbital elements,

1 26930U 01043B   17206.26250818 -.00000056 +00000-0 +10446-4 0  9997
2 26930 067.0022 311.1535 0011229 277.5573 082.4252 14.30646424825933
Epoch (UTC): 25 July 2017 06:18:00
Eccentricity: 0.0011229
inclination: 67.0022°
perigee height: 781 km
apogee height: 797 km
right ascension of ascending node: 311.1535°
argument of perigee: 277.5573°
revolutions per day: 14.30646424
mean anomaly at epoch: 82.4252°
orbit number at epoch: 82593

The dashed part of the orbit path shows where the satellite is in the earth's shadow,  

DLR